This demonstration page uses our WeatherBlox Daily Observations layout. Learn more.

Left ArrowRight Arrow

Hourly Observations for March 22, 2018

Temp ( °F °C ) Dew Point ( °F °C ) Humidity (%) Winds ( mph kmh ) Pressure ( in mb ) Visibility ( mi km ) Precip ( " mm )
12:53 am 00:53 Clear 43 6.1 34 1.1 71 71 S 9 15 30.11 1020 10 16 0.00 0.00
1:53 am 01:53 Mostly Cloudy 43 6.1 34 1.1 71 71 S 7 11 30.12 1020 10 16 0.00 0.00
2:53 am 02:53 Cloudy 42 5.6 34 1.1 73 73 SSE 7 11 30.13 1020 10 16 0.00 0.00
3:53 am 03:53 Cloudy 40 4.4 34 1.1 79 79 SE 5 7 30.13 1020 10 16 0.00 0.00
4:53 am 04:53 Mostly Cloudy 39 3.9 34 1.1 82 82 SE 6 9 30.13 1020 10 16 0.00 0.00
5:53 am 05:53 Mostly Clear 38 3.3 33 0.6 83 83 SE 7 11 30.13 1020 10 16 0.00 0.00
6:53 am 06:53 Clear 37 2.8 33 0.6 86 86 SSE 6 9 30.14 1021 10 16 0.00 0.00
7:53 am 07:53 Mostly Sunny 36 2.2 32 0 86 86 SE 6 9 30.15 1021 10 16 0.00 0.00
8:53 am 08:53 Sunny 39 3.9 33 0.6 79 79 SE 7 11 30.15 1021 10 16 0.00 0.00
9:53 am 09:53 Sunny 44 6.7 35 1.7 71 71 SSE 7 11 30.16 1021 10 16 0.00 0.00
10:53 am 10:53 Sunny 49 9.4 36 2.2 61 61 S 9 15 30.14 1021 10 16 0.00 0.00
11:53 am 11:53 Sunny 54 12.2 36 2.2 51 51 S 10 17 30.13 1020 10 16 0.00 0.00
12:53 pm 12:53 Sunny 59 15 37 2.8 44 44 SSW 9 15 30.11 1020 10 16 0.00 0.00
1:53 pm 13:53 Sunny 63 17.2 37 2.8 38 38 S 8 13 30.08 1019 10 16 0.00 0.00
2:53 pm 14:53 Sunny 65 18.3 37 2.8 36 36 VRB 3 6 30.06 1018 10 16 0.00 0.00
3:53 pm 15:53 Sunny 67 19.4 38 3.3 35 35 S 7 11 30.03 1017 10 16 0.00 0.00
4:53 pm 16:53 Sunny 68 20 38 3.3 33 33 ESE 7 11 30.03 1017 10 16 0.00 0.00
5:53 pm 17:53 Sunny 67 19.4 38 3.3 35 35 SE 5 7 30.03 1017 10 16 0.00 0.00
6:53 pm 18:53 Sunny 66 18.9 38 3.3 36 36 E 8 13 30.04 1017 10 16 0.00 0.00
7:53 pm 19:53 Clear 60 15.6 38 3.3 44 44 E 6 9 30.06 1018 10 16 0.00 0.00
8:53 pm 20:53 Clear 52 11.1 39 3.9 61 61 ENE 7 11 30.08 1019 10 16 0.00 0.00
9:53 pm 21:53 Clear 51 10.6 39 3.9 64 64 E 9 15 30.09 1019 10 16 0.00 0.00
10:53 pm 22:53 Clear 53 11.7 38 3.3 57 57 E 9 15 30.08 1019 10 16 0.00 0.00
11:53 pm 23:53 Clear 50 10 39 3.9 66 66 E 10 17 30.05 1018 10 16 0.00 0.00

Powered by AerisWeather